Total_Precipitation_Accumulation
0.94 1.04 1.15 1.20 1.21 1.25 1.30 1.34 1.37 1.40 1.31 1.16 1.12 1.10 1.05 1.03 1.19 0.92 0.80 0.98 0.95 0.91 0.87 0.81 0.73 0.66 0.62 0.60 0.59 0.58 0.58 0.56 0.55 0.58 0.63 0.72 0.80 0.86
0.72 0.80 0.92 1.04 1.12 1.17 1.24 1.25 1.20 1.18 1.20 1.08 1.00 1.00 0.99 0.94 1.04 0.77 0.74 0.86 0.75 0.70 0.66 0.62 0.57 0.52 0.49 0.49 0.50 0.51 0.49 0.47 0.46 0.46 0.47 0.50 0.56 0.63
0.73 0.78 0.84 0.90 0.96 1.00 1.02 1.04 1.11 1.14 1.21 1.21 1.10 1.02 0.95 0.90 0.86 0.74 0.66 0.63 0.62 0.62 0.56 0.51 0.47 0.43 0.40 0.37 0.35 0.35 0.35 0.34 0.34 0.34 0.35 0.37 0.39 0.43
0.62 0.65 0.67 0.68 0.74 0.81 0.86 0.87 0.92 0.98 1.06 1.14 1.08 0.95 0.87 0.79 0.71 0.66 0.56 0.50 0.49 0.51 0.47 0.43 0.39 0.35 0.32 0.29 0.26 0.23 0.22 0.22 0.24 0.26 0.29 0.32 0.34 0.36
0.51 0.51 0.52 0.53 0.56 0.58 0.62 0.66 0.70 0.74 0.80 0.84 0.86 0.78 0.73 0.65 0.61 0.57 0.50 0.50 0.40 0.39 0.35 0.31 0.28 0.26 0.23 0.21 0.20 0.19 0.17 0.14 0.13 0.14 0.17 0.20 0.23 0.24
0.34 0.34 0.38 0.42 0.44 0.44 0.44 0.45 0.49 0.57 0.63 0.69 0.68 0.64 0.59 0.52 0.55 0.54 0.48 0.44 0.38 0.28 0.28 0.23 0.20 0.17 0.15 0.15 0.15 0.13 0.12 0.11 0.11 0.11 0.10 0.10 0.09 0.09
0.23 0.22 0.24 0.30 0.35 0.36 0.36 0.39 0.45 0.51 0.54 0.57 0.54 0.50 0.47 0.50 0.51 0.47 0.43 0.38 0.33 0.27 0.30 0.29 0.29 0.30 0.30 0.23 0.17 0.13 0.10 0.08 0.07 0.06 0.05 0.06 0.06 0.05
0.22 0.23 0.23 0.25 0.26 0.26 0.30 0.39 0.49 0.51 0.52 0.53 0.50 0.50 0.47 0.47 0.47 0.44 0.44 0.45 0.46 0.34 0.36 0.34 0.31 0.35 0.34 0.31 0.22 0.13 0.10 0.08 0.06 0.04 0.04 0.03 0.03 0.04
0.23 0.22 0.20 0.21 0.23 0.23 0.26 0.30 0.35 0.39 0.45 0.52 0.57 0.55 0.55 0.55 0.55 0.52 0.53 0.56 0.54 0.43 0.49 0.47 0.34 0.33 0.25 0.20 0.18 0.12 0.10 0.08 0.06 0.04 0.03 0.03 0.03 0.03
0.22 0.24 0.23 0.24 0.24 0.24 0.24 0.25 0.30 0.36 0.38 0.40 0.52 0.53 0.48 0.49 0.54 0.56 0.59 0.60 0.60 0.54 0.56 0.58 0.37 0.31 0.24 0.29 0.25 0.16 0.12 0.10 0.08 0.06 0.05 0.03 0.03 0.03
0.19 0.19 0.22 0.24 0.24 0.23 0.25 0.32 0.35 0.40 0.33 0.34 0.41 0.48 0.49 0.49 0.48 0.53 0.68 0.79 0.75 0.57 0.54 0.59 0.46 0.36 0.30 0.33 0.28 0.20 0.15 0.13 0.10 0.07 0.07 0.07 0.07 0.07
0.18 0.18 0.19 0.19 0.19 0.18 0.25 0.33 0.42 0.43 0.39 0.43 0.54 0.59 0.59 0.65 0.61 0.62 0.77 0.83 0.78 0.73 0.58 0.58 0.54 0.49 0.46 0.34 0.31 0.30 0.29 0.23 0.15 0.13 0.10 0.10 0.13 0.16
0.21 0.25 0.25 0.17 0.15 0.17 0.22 0.28 0.34 0.33 0.42 0.57 0.64 0.63 0.63 0.68 0.65 0.60 0.67 0.75 0.80 0.85 0.64 0.61 0.61 0.60 0.63 0.48 0.30 0.28 0.32 0.37 0.37 0.37 0.31 0.23 0.19 0.19
0.25 0.26 0.24 0.16 0.14 0.18 0.21 0.26 0.28 0.35 0.51 0.63 0.67 0.65 0.60 0.60 0.58 0.53 0.56 0.61 0.69 0.71 0.62 0.61 0.69 0.69 0.63 0.54 0.40 0.29 0.32 0.43 0.55 0.65 0.62 0.49 0.35 0.29
0.19 0.17 0.17 0.18 0.20 0.31 0.31 0.30 0.36 0.52 0.60 0.63 0.66 0.65 0.56 0.49 0.45 0.43 0.46 0.55 0.61 0.53 0.43 0.43 0.56 0.56 0.55 0.53 0.50 0.43 0.38 0.41 0.55 0.71 0.76 0.70 0.58 0.44
0.17 0.19 0.26 0.32 0.36 0.43 0.48 0.54 0.57 0.57 0.53 0.60 0.61 0.53 0.42 0.37 0.38 0.39 0.44 0.51 0.58 0.54 0.39 0.33 0.38 0.44 0.49 0.44 0.44 0.46 0.43 0.51 0.59 0.68 0.80 0.84 0.71 0.51
0.16 0.26 0.42 0.48 0.53 0.56 0.59 0.63 0.64 0.58 0.52 0.51 0.51 0.48 0.41 0.38 0.35 0.32 0.37 0.41 0.48 0.50 0.42 0.33 0.32 0.32 0.30 0.30 0.38 0.41 0.40 0.49 0.62 0.69 0.79 0.93 0.89 0.66
0.22 0.38 0.44 0.46 0.51 0.50 0.49 0.53 0.57 0.55 0.48 0.44 0.44 0.42 0.38 0.37 0.37 0.33 0.33 0.38 0.44 0.42 0.37 0.31 0.27 0.26 0.27 0.27 0.35 0.41 0.43 0.56 0.67 0.66 0.64 0.78 0.98 0.87
0.35 0.43 0.42 0.43 0.46 0.43 0.42 0.46 0.49 0.45 0.38 0.36 0.35 0.32 0.29 0.28 0.30 0.32 0.30 0.31 0.31 0.30 0.27 0.23 0.21 0.25 0.30 0.38 0.44 0.58 0.59 0.59 0.59 0.58 0.58 0.68 0.92 0.92
0.40 0.38 0.37 0.38 0.41 0.40 0.36 0.35 0.34 0.29 0.25 0.26 0.27 0.24 0.23 0.24 0.26 0.27 0.24 0.21 0.24 0.26 0.24 0.20 0.18 0.22 0.30 0.38 0.58 0.74 0.70 0.52 0.46 0.56 0.65 0.71 0.83 0.83
0.30 0.31 0.31 0.31 0.32 0.34 0.30 0.26 0.23 0.19 0.17 0.17 0.18 0.19 0.19 0.19 0.20 0.19 0.15 0.10 0.15 0.19 0.22 0.23 0.20 0.19 0.21 0.22 0.40 0.62 0.68 0.73 0.64 0.61 0.65 0.64 0.55 0.45
0.24 0.26 0.24 0.21 0.23 0.22 0.18 0.17 0.16 0.14 0.12 0.12 0.12 0.12 0.12 0.13 0.13 0.12 0.10 0.10 0.11 0.11 0.15 0.17 0.16 0.15 0.17 0.22 0.36 0.52 0.55 0.51 0.51 0.56 0.58 0.44 0.29 0.31
0.22 0.21 0.18 0.17 0.16 0.14 0.12 0.10 0.09 0.09 0.09 0.11 0.10 0.08 0.07 0.07 0.06 0.04 0.04 0.04 0.04 0.04 0.06 0.10 0.10 0.10 0.11 0.13 0.19 0.26 0.26 0.22 0.16 0.18 0.34 0.45 0.40 0.44